www.pogodaiklimat.ru

Погода и климат >> Архив погоды >> Кувейт >> Sulaibiya


ПОГОДА в Sulaibiya

  • Прогноз погоды в Sulaibiya
  • Монитор погоды в Sulaibiya
  • Климат города

АРХИВ ПОГОДЫ в Sulaibiya

Время (UTC), дата Ветер
(напр.,м/с)
 
Видим.   Явления Облачность Т
(С)
Тd
(С)
f
(%)
Тe
(С)
Тes
(С)
Комфортность P
(гПа)
Po
(гПа)
Тmin
(С)
Tmax
(С)
R
(мм)
R24
(мм)
S
(см)
18 12.07 СЗ 10 н/о н/о +42.6 +1.2 8 +39 +39 очень
жарко
995.0 995.0
21 12.07 СЗ 9 н/о н/о +39.3 +2.2 10 +36 +36 очень
жарко
995.0 995.0 +36.5 +49.7
00 13.07 СЗ 8 н/о н/о +37.1 +2.5 12 +34 +34 очень
жарко
994.6 995.0
03 13.07 С 8 н/о н/о +36.7 +3.4 13 +34 +34 очень
жарко
995.7 996.0
06 13.07 С 9 н/о н/о +41.8 +2.0 9 +38 +38 очень
жарко
995.7 996.0
09 13.07 С 10 н/о н/о +46.8 -0.6 6 +43 +43 опасность
перегрева
995.0 995.0
12 13.07 СЗ 10 н/о н/о +48.2 -0.8 5 +44 +44 опасность
перегрева
993.8 994.0
15 13.07 СЗ 8 н/о н/о +45.3 +2.0 7 +42 +42 опасность
перегрева
994.1 994.0
18 13.07 СЗ 6 н/о н/о +41.7 +2.8 9 +38 +38 очень
жарко
995.9 996.0
21 13.07 СЗ 5 н/о н/о +38.1 +3.0 11 +35 +35 очень
жарко
995.8 996.0 +35.7 +48.9
00 14.07 СЗ 4 н/о н/о +33.7 +2.8 14 +31 +31 жарко 995.0 995.0
03 14.07 З 3 н/о н/о +32.5 +5.2 18 +30 +30 жарко 996.4 996.0
06 14.07 СЗ 4 н/о н/о +41.1 +2.9 10 +38 +38 очень
жарко
997.0 997.0
09 14.07 СЗ 6 н/о н/о +46.0 +0.9 6 +42 +42 опасность
перегрева
996.4 996.0
12 14.07 З 8 н/о н/о +47.9 -0.1 5 +44 +44 опасность
перегрева
994.8 995.0
15 14.07 СЗ 8 н/о н/о +45.6 -0.6 6 +42 +42 опасность
перегрева
994.8 995.0
18 14.07 СЗ 4 н/о н/о +40.9 -1.1 7 +37 +37 очень
жарко
996.4 996.0
21 14.07 СЗ 4 н/о н/о +36.5 -1.8 9 +33 +33 жарко 996.2 996.0 +30.8 +48.4
00 15.07 З 3 н/о н/о +31.2 -1.6 12 +28 +28 жарко 996.1 996.0
03 15.07 З 2 н/о н/о +31.5 -0.7 13 +28 +28 жарко 997.0 997.0
06 15.07 СЗ 5 н/о н/о +41.9 0.0 7 +38 +38 очень
жарко
997.9 998.0
09 15.07 З 3 н/о н/о +45.3 +0.2 6 +41 +41 опасность
перегрева
996.9 997.0
12 15.07 З 7 н/о н/о +46.4 -0.5 6 +43 +43 опасность
перегрева
995.4 995.0
15 15.07 З 6 н/о н/о +44.7 +2.8 8 +41 +41 опасность
перегрева
994.9 995.0
18 15.07 З 5 н/о н/о +39.9 +0.9 9 +36 +36 очень
жарко
996.1 996.0
21 15.07 СЗ 3 н/о н/о +37.2 +1.1 10 +34 +34 очень
жарко
995.9 996.0 +30.0 +46.9
00 16.07 СЗ 6 н/о н/о +37.2 +2.6 12 +34 +34 очень
жарко
995.6 996.0
03 16.07 СЗ 7 н/о н/о +36.2 +2.0 12 +33 +33 жарко 996.4 996.0
06 16.07 СЗ 8 н/о н/о +42.2 +2.0 8 +39 +39 очень
жарко
996.8 997.0
09 16.07 СЗ 7 н/о н/о +45.6 +2.6 7 +42 +42 опасность
перегрева
996.2 996.0
12 16.07 З 9 н/о н/о +45.9 -0.1 6 +42 +42 опасность
перегрева
995.1 995.0
15 16.07 СЗ 8 н/о н/о +43.8 +2.2 8 +40 +40 очень
жарко
994.8 995.0
18 16.07 З 7 н/о н/о +39.9 +0.9 9 +36 +36 очень
жарко
996.3 996.0
21 16.07 СЗ 5 н/о н/о +37.2 +3.7 13 +34 +34 очень
жарко
996.6 997.0 +34.7 +47.1
00 17.07 З 5 н/о н/о +34.7 +3.8 14 +32 +32 жарко 995.8 996.0
03 17.07 З 6 н/о н/о +34.1 +4.5 16 +32 +32 жарко 996.8 997.0
06 17.07 СЗ 8 н/о н/о +41.1 +5.4 11 +38 +38 очень
жарко
997.2 997.0
09 17.07 СЗ 10 н/о н/о +42.7 +3.9 9 +39 +39 очень
жарко
996.7 997.0
12 17.07 СЗ 10 н/о н/о +43.8 +2.3 8 +40 +40 очень
жарко
995.4 995.0
15 17.07 СЗ 9 н/о н/о +42.0 +2.1 9 +39 +39 очень
жарко
995.1 995.0
18 17.07 СЗ 5 н/о н/о +38.3 +1.3 10 +35 +35 очень
жарко
996.7 997.0
21 17.07 З 4 н/о н/о +34.4 +2.5 13 +31 +31 жарко 996.6 997.0 +33.4 +44.4
00 18.07 З 4 н/о н/о +31.9 +1.8 15 +29 +29 жарко 996.4 996.0
03 18.07 З 5 н/о н/о +33.0 +0.7 13 +30 +30 жарко 997.6 998.0
06 18.07 СЗ 9 н/о н/о +39.7 +0.9 9 +36 +36 очень
жарко
998.1 998.0
09 18.07 З 8 н/о н/о +43.2 +0.2 7 +39 +39 очень
жарко
997.0 997.0
12 18.07 З 7 н/о н/о +43.8 -2.4 6 +40 +40 очень
жарко
995.7 996.0
18 18.07 З 5 н/о н/о +38.4 +1.3 10 +35 +35 очень
жарко
997.0 997.0
21 18.07 З 4 н/о н/о +35.0 0.0 11 +31 +31 жарко 997.1 997.0 +31.3 +44.2
00 19.07 ЮЗ 5 н/о н/о +34.1 +0.4 12 +31 +31 жарко 996.7 997.0
03 19.07 З 4 н/о н/о +32.5 +1.1 14 +29 +29 жарко 997.9 998.0
06 19.07 З 4 н/о н/о +40.4 +1.6 9 +37 +37 очень
жарко
998.2 998.0
09 19.07 СВ 1 н/о н/о +45.1 +1.2 7 +42 +42 опасность
перегрева
997.2 997.0
12 19.07 СЗ 2 н/о н/о +47.2 +0.6 6 +44 +44 опасность
перегрева
995.8 996.0

 

Местоположение метеостанции Sulaibiya (Кувейт): широта 29.27 долгота 47.72 высота над уровнем моря 55 м.

В архиве по умолчанию представлена погода в Sulaibiya за последнюю неделю. Архивные данные за месяц целиком и за предыдущие месяцы, начиная с января 2011 года, Вы можете получить, выбрав интересующий диапазон дат из раскрывающегося списка и нажав кнопку "Ввод!".


*Определитесь, кто Вы:
робот инопланетянин человек

Внимание! Время в таблицах - всемирное. Для получения местного времени необходимо прибавить поправку, которая в Sulaibiya равна 3 ч.

Смотрите также архив погоды в соседних городах и на ближайших метеорологических станциях:

Погода в Jahra (Кувейт) (7 км)
Погода в Experimental Farm (Кувейт) (21 км)
Погода в Kuwait (Кувейт) (25 км)
Погода в Minagish (Кувейт) (29 км)
Погода в Kuwait City (Кувейт) (33 км)
Погода в Al-Shuaiba (Кувейт) (38 км)
Погода в Jal Aliyah (Кувейт) (40 км)
Погода в Sabriyah (Кувейт) (55 км)
Погода в Failaka Island (Кувейт) (59 км)
Погода в Mitribah (Кувейт) (70 км)

Пояснения к столбцам:

Ветер - указаны скорость ветра в м/с - средняя за 10 мин, порывы в срок и между сроками (в фигурных скобках) и направление, откуда дует ветер: С - северный, СВ - северо-восточный, В - восточный, ЮВ - юго-восточный, Ю - южный, ЮЗ - юго-западный, З - западный, СЗ - северо-западный.
Видимость - горизонтальная дальность видимости в метрах или километрах. При видимости от 1 до 10 км при отсутствии осадков обычно наблюдается дымка, при ухудшении видимости до 1 км и менее - туман. В сухую погоду видимость может ухудшаться дымом, пылью или мглою.
Явления - указаны атмосферные явления, наблюдавшиеся в срок или в последний час перед сроком; фигурными скобками обозначены явления, наблюдавшиеся между сроками (за 1-3 часа до срока); квадратными скобками обозначены град или гололедные отложения с указанием их диаметра в мм.
Облачность - указаны через наклонную черту общая и нижняя облачность в баллах и высота нижней границы облаков в метрах; квадратными скобками обозначены формы облаков: Ci - перистые, Cs - перисто-слоистые, Cc - перисто-кучевые, Ac - высококучевые, As - высокослоистые, Sc - слоисто-кучевые, Ns - слоисто-дождевые, Cu - кучевые, Cb - кучево-дождевые. Подробнее классификацию облаков см. в Атласе облаков (PDF).
T - Температура воздуха - температура, измеренная на высоте 2 м над землей.
Td - Температура точки росы - температура, при понижении до которой содержащийся в воздухе водяной пар достигнет насыщения.
f - Относительная влажность воздуха - влажноcть воздуха, измеренная на высоте 2 м над землей.
Te - Эффективная температура - температура, которую ощущает одетый по сезону человек в тени. Характеристика душности погоды. При расчете учитывается влияние влажности воздуха и скорости ветра на теплоощущения человека.
Tes - Эффективная температура на солнце - температура, которую ощущает человек, с поправкой на солнечный нагрев. Характеристика знойности погоды. Зависит от высоты солнца над горизонтом, облачности и скорости ветра. Ночью, в пасмурную погоду, а также при ветре 12 м/с и более поправка равна нулю.
P - Атмосферное давление - приведенное к уровню моря атмосферное давление.
Po - Атмосферное давление - измеренное на уровне метеостанции атмосферное давление.
Tmin - Минимальная температура - минимум температуры воздуха на высоте 2 м над землей.
Tmax - Максимальная температура - максимум температуры воздуха на высоте 2 м над землей.
R - Количество осадков - Количество выпавших осадков за период времени, мм. При наведении курсора мыши на число - период времени, за который выпало указанное количество осадков.
R24 - Количество осадков - Количество выпавших осадков за 24 часа, мм.
S - Снежный покров - Высота снежного покрова, см. При наведении курсора мыши на число - состояние снежного покрова и степень покрытия местности в баллах.